This demonstration page uses our WeatherBlox Daily Observations layout. Learn more.

39.92423, -83.80882

Hourly Observations for June 30, 2020

Temp ( °F °C ) Dew Point ( °F °C ) Humidity (%) Winds ( mph kmh ) Pressure ( in mb ) Visibility ( mi km ) Precip ( " mm )
12:56 am 00:56 Clear 70 21.1 70 21.1 100 100 NNW 5 7 29.96 1014 10 16.0934 0 0
1:56 am 01:56 Clear 70 21.1 70 21.1 100 100 Calm 29.95 1014 8 12.87472 0 0
2:56 am 02:56 Clear 69 20.6 69 20.6 100 100 Calm 29.96 1015 7 11.26538 0 0
3:56 am 03:56 Clear 69 20.6 69 20.6 100 100 S 3 6 29.94 1014 7 11.26538 0 0
4:56 am 04:56 Mostly Clear with Mist and Fog 68 20 68 20 100 100 Calm 29.95 1014 5 8.0467 0 0
5:56 am 05:56 Clear 68 20 68 20 100 100 Calm 29.95 1014 9 14.48406 0 0
6:56 am 06:56 Sunny 67 19.4 67 19.4 100 100 Calm 29.96 1014 7 11.26538 0 0
7:56 am 07:56 Sunny 73 22.8 72 22.2 96 96 NW 5 7 29.96 1015 10 16.0934 0 0
8:56 am 08:56 Sunny 75 23.9 73 22.8 94 94 NNW 8 13 29.96 1015 10 16.0934 0 0
9:56 am 09:56 Sunny 78 25.6 74 23.3 87 87 NNE 6 9 29.97 1015 10 16.0934 0 0
10:56 am 10:56 Sunny 81 27.2 72 22.2 74 74 E 3 6 29.96 1015 10 16.0934 0 0
11:56 am 11:56 Partly Cloudy 84 28.9 73 22.8 70 70 VRB 5 7 29.96 1015 10 16.0934 0 0
12:17 pm 12:17 Cloudy 84 29 73 23 70 70 S 7 11 29.92 1013 10 16.0934 0 0
12:24 pm 12:24 Mostly Cloudy 84 29 72 22 66 66 SSE 7 11 29.92 1013 10 16.0934 0 0
12:56 pm 12:56 Mostly Cloudy 85 29.4 73 22.8 68 68 ENE 8 13 29.95 1014 10 16.0934 0 0
1:56 pm 13:56 Mostly Cloudy 84 28.9 72 22.2 67 67 ENE 7 11 29.94 1014 10 16.0934 0 0
2:56 pm 14:56 Cloudy with Thunderstorms 86 30 70 21.1 59 59 ESE 9 15 29.91 1013 10 16.0934 0 0
3:54 pm 15:54 Cloudy 77 25 68 20 74 74 SW 12 19 29.89 1012 10 16.0934 0 0
3:56 pm 15:56 Cloudy 77 25 68 20 74 74 SSW 8 13 29.93 1014 10 16.0934 0 0
4:56 pm 16:56 Hazy 83 28.3 72 22.2 70 70 W 8 13 29.91 1013 2.5 4.02335 0 0
5:03 pm 17:03 Hazy 82 28 72 22 70 70 W 14 22 29.87 1012 1 1.60934 0 0
5:07 pm 17:07 Sunny 82 28 72 22 70 70 W 9 15 29.87 1012 9 14.48406 0 0
5:56 pm 17:56 Mostly Sunny 82 27.8 70 21.1 67 67 WSW 6 9 29.89 1012 10 16.0934 0 0
6:56 pm 18:56 Mostly Cloudy 80 26.7 70 21.1 71 71 SW 7 11 29.89 1012 10 16.0934 0 0
7:56 pm 19:56 Mostly Sunny 79 26.1 72 22.2 79 79 SW 7 11 29.9 1012 10 16.0934 0 0
8:56 pm 20:56 Sunny 77 25 73 22.8 88 88 SSW 3 6 29.91 1013 10 16.0934 0 0
9:56 pm 21:56 Clear 74 23.3 73 22.8 97 97 SW 3 6 29.91 1013 10 16.0934 0 0
10:56 pm 22:56 Mostly Clear 72 22.2 72 22.2 100 100 Calm 29.92 1013 10 16.0934 0 0
11:56 pm 23:56 Clear 70 21.1 70 21.1 100 100 ENE 7 11 29.92 1013 10 16.0934 0 0

Powered by AerisWeather